Powrót do katalogu

YAOGAN-43 O1F

AktywnyMilitariaVLEO
NORAD 60463·PAYLOAD·🇨🇳 China

Wystrzelony Aug 16, 2024 z Xichang Satellite Launch Center

Loading…

Następne Przeloty (najbliższe 24 godziny)

TLE

ŚwieżeSource: Space-Track

Epoka: Sep 14, 2026, 13:37 UTC

1 60463U 24148F   26257.56778321  .00011587  00000-0  33787-3 0  9992
2 60463  34.9916 297.0058 0007217 308.3485  51.6584 15.34516436116018

Śledź YAOGAN-43 O1F w czasie rzeczywistym z AllMySat

Download on the App Store